Location: Austin
(30.3000°N, 97.7500°W)
Time: 12:17:09
(UTC-05:00)

NOSS 3-2 (C) - Pass Details

Date: 03 April 2024
Orbit: 712 x 1499 km, 63.4° (Epoch: 17 April)

Event Time Altitude Azimuth Distance (km) Brightness Sun altitude
Rises 05:12:29 0° 334° (NNW) 4,103 6.7 -26.7°
Reaches altitude 10° 05:15:07 10° 336° (NNW) 3,236 6.2 -26.2°
Maximum altitude 05:23:10 70° 60° (ENE) 1,476 4.5 -24.6°
Drops below altitude 10° 05:32:14 10° 143° (SE) 3,625 6.6 -22.8°
Sets 05:35:19 0° 146° (SE) 4,618 7.2 -22.1°
